EHI
0 0 0 0 0 0 0 0 0 0 0 0 0 0 0 0 0 0 0 0 0 0 0 0 0 0 0 0 0 0 0 0 0 0 0 0 0 0
0 0 0 0 0 0 0 0 0 0 0 0 0 0 0 0 0 0 0 0 0 0 0 0 0 0 0 0 0 0 0 0 0 0 0 0 0 0
0 0 0 0 0 0 0 0 0 0 0 0 0 0 0 0 0 0 0 0 0 0 0 0 0 0 0 0 0 0 0 0 0 0 0 0 0 0
0 0 0 0 0 0 0 0 0 0 0 0 0 0 0 0 0 0 0 0 0 0 0 0 0 0 0 0 0 0 0 0 0 0 0 0 0 0
0 0 0 0 0 0 0 0 0 0 0 0 0 0 0 0 0 0 0 0 0 0 0 0 0 0 0 0 0 0 0 0 0 0 0 0 0 0
0 0 0 0 0 0 0 0 0 0 0 0 0 0 0 0 0 0 0 0 0 0 0 0 0 0 0 0 0 0 0 0 0 0 0 0 0 0
0 0 0 0 0 0 0 0 0 0 0 0 0 0 0 0 0 0 0 0 0 0 0 0 0 0 0 0 0 0 0 0 0 0 0 0 0 0
0 0 0 0 0 0 0 0 0 0 0 0 0 0 0 0 0 0 0 0 0 0 0 0 0 0 0 0 0 0 0 0 0 0 0 0 0 0
0 0 0 0 0 0 0 0 0 0 0 0 0 0 0 0 0 0 0 0 0 0 0 0 0 0 0 0 0 0 0 0 0 0 0 0 0 0
0 0 0 0 0 0 0 0 0 0 0 0 0 0 0 0 0 0 0 0 0 0 0 0 0 0 0 0 0 0 0 0 0 0 0 0 0 0
0 0 0 0 0 0 0 0 0 0 0 0 0 0 0 0 0 0 0 0 0 0 0 0 0 0 0 0 0 0 0 0 0 0 0 0 0 0
0 0 0 0 0 0 0 0 0 0 0 0 0 0 0 0 0 0 0 0 0 0 0 0 0 0 0 0 0 0 0 0 0 0 0 0 0 0
0 0 0 0 0 0 0 0 0 0 0 0 0 0 0 0 0 0 0 0 0 0 0 0 0 0 0 0 0 0 0 0 0 0 0 0 0 0
0 0 0 0 0 0 0 0 0 0 0 0 0 0 0 0 0 0 0 0 0 0 0 0 0 0 0 0 0 0 0 0 0 0 0 0 0 0
0 0 0 0 0 0 0 0 0 0 0 0 0 0 0 0 0 0 0 0 0 0 0 0 0 0 0 0 0 0 0 0 0 0 0 0 0 0
0 0 0 0 0 0 0 0 0 0 0 0 0 0 0 0 0 0 0 0 0 0 0 0 0 0 0 0 0 0 0 0 0 0 0 0 0 0
0 0 0 0 0 0 0 0 0 0 0 0 0 0 0 0 0 0 0 0 0 0 0 0 0 0 0 0 0 0 0 0 0 0 0 0 0 0
0 0 0 0 0 0 0 0 0 0 0 0 0 0 0 0 0 0 0 0 0 0 0 0 0 0 0 0 0 0 0 0 0 0 0 0 0 0
0 0 0 0 0 0 0 0 0 0 0 0 0 0 0 0 0 0 0 0 0 0 0 0 0 0 0 0 0 0 0 0 0 0 0 0 0 0
0 0 0 0 0 0 0 0 0 0 0 0 0 0 0 0 0 0 0 0 0 0 0 0 0 0 0 0 0 0 0 0 0 0 0 0 0 0
0 0 0 0 0 0 0 0 0 0 0 0 0 0 0 0 0 0 0 0 0 0 0 0 0 0 0 0 0 0 0 0 0 0 0 0 0 0
0 0 0 0 0 0 0 0 0 0 0 0 0 0 0 0 0 0 0 0 0 0 0 0 0 0 0 0 0 0 0 0 0 0 0 0 0 0
0 0 0 0 0 0 0 0 0 0 0 0 0 0 0 0 0 0 0 0 0 0 0 0 0 0 0 0 0 0 0 0 0 0 0 0 0 0
Wind_Speed
3 3 3 3 3 3 3 3 2 3 3 3 2 3 3 2 4 5 6 9 12 13 13 14 15 16 16 16 16 16 16 16 16 17 17 17 17 17
3 4 4 3 3 3 3 4 4 3 4 2 2 3 4 3 1 3 4 8 11 12 13 13 14 15 15 15 15 15 15 15 15 15 15 15 15 14
5 5 5 4 3 3 3 4 4 4 5 4 2 3 3 2 1 1 1 2 4 9 11 12 12 13 13 13 14 14 14 14 14 14 14 14 13 13
7 6 7 5 5 4 4 5 5 5 5 5 3 2 2 1 1 2 2 2 3 6 8 9 10 11 11 11 12 12 12 12 12 12 12 12 13 13
8 8 8 7 7 5 5 5 5 5 5 5 4 2 2 1 2 3 3 3 3 5 6 7 7 8 9 10 10 10 11 11 11 12 12 11 11 11
8 8 9 9 9 8 6 7 6 5 5 5 5 3 3 2 3 4 3 2 2 3 5 5 7 7 7 8 9 10 10 10 10 10 10 10 10 9
9 9 9 11 13 10 7 7 6 5 5 5 5 4 3 3 4 4 5 4 2 2 4 3 4 4 3 5 7 9 10 10 10 10 10 10 10 9
11 10 10 12 14 15 16 14 11 8 8 6 5 6 6 5 5 5 5 5 4 4 4 3 3 3 2 2 4 8 10 11 11 11 11 11 11 11
11 10 10 10 11 10 13 16 15 16 14 9 9 8 7 6 7 8 7 6 4 6 4 3 3 3 2 3 5 7 9 11 11 12 12 12 13 13
12 12 12 12 10 10 10 11 11 11 11 11 10 9 8 7 7 8 7 7 5 5 4 4 3 2 2 3 5 7 10 11 13 13 14 14 14 14
11 12 12 13 14 14 12 12 11 10 11 13 13 12 12 11 8 6 8 9 6 4 2 5 4 3 2 3 6 9 10 12 13 15 16 16 16 15
9 10 14 15 14 15 13 12 13 11 10 9 10 12 11 11 12 10 9 9 6 5 4 5 5 5 4 2 3 4 7 11 13 14 16 16 14 10
8 8 8 13 16 16 15 12 13 11 9 10 9 9 8 8 9 9 9 8 8 5 8 7 6 4 5 4 2 2 3 4 6 8 11 11 9 8
8 7 8 12 14 15 13 12 14 12 8 8 8 8 8 8 7 9 10 9 6 7 11 8 6 7 7 5 4 3 3 3 5 6 7 9 10 10
7 10 11 12 12 11 14 15 13 9 9 9 9 9 8 8 7 7 9 8 7 8 10 7 8 8 6 7 7 6 4 3 4 6 6 6 6 6
6 8 9 10 9 8 8 10 9 9 9 9 9 8 7 7 8 7 7 8 7 6 6 7 9 11 6 6 8 7 6 7 6 6 6 5 4 4
5 4 4 4 5 5 6 7 8 8 9 8 8 8 8 8 7 7 7 7 7 8 7 6 5 5 5 7 8 8 9 7 8 8 6 5 4 4
5 4 4 4 4 4 5 6 7 8 8 8 8 8 8 8 8 7 7 8 8 8 8 8 8 6 4 4 3 10 8 7 9 8 6 6 5 5
4 4 4 4 4 4 4 4 5 6 7 7 8 8 8 8 8 8 8 9 8 9 9 10 10 9 8 6 3 5 9 10 10 8 6 5 5 6
4 5 5 4 4 4 3 4 4 4 5 6 7 7 8 9 9 9 9 9 9 8 9 9 10 9 8 9 7 6 9 12 10 10 7 4 5 6
4 5 4 4 4 4 3 3 4 4 5 5 6 7 7 8 9 9 8 11 9 9 11 10 8 8 8 8 7 5 7 8 8 9 10 7 6 6
5 5 5 4 4 3 4 4 4 5 6 5 5 6 6 7 9 10 9 10 9 8 9 8 10 9 6 7 8 9 9 8 7 8 9 6 7 9
6 5 5 4 4 3 3 4 5 4 5 5 5 6 6 6 7 8 9 9 9 10 11 10 9 6 5 7 9 9 12 11 8 8 6 2 3 5
Wind_Direction
271 266 255 253 245 240 236 230 247 289 297 300 314 348 331 274 235 216 211 207 203 199 198 197 198 197 196 195 197 199 201 202 203 205 207 210 213 215
264 268 264 259 255 245 237 234 227 236 266 290 304 318 321 306 259 218 216 202 200 194 193 192 192 191 191 192 194 196 198 200 200 201 202 204 207 209
262 261 265 265 261 252 239 234 232 227 251 272 273 294 304 295 16 81 116 147 172 181 180 180 181 181 184 187 190 192 194 195 196 198 199 202 204 206
250 250 258 262 258 254 242 236 234 230 238 264 274 285 291 254 130 102 84 93 110 141 154 159 165 169 174 180 185 188 190 193 195 197 198 200 202 205
240 239 246 248 254 251 245 241 237 237 231 244 259 254 258 192 141 118 106 98 95 113 119 131 146 157 166 174 179 183 186 190 193 195 196 197 199 200
244 236 237 237 242 245 246 240 236 236 233 235 244 242 232 195 168 157 149 135 122 109 104 105 119 131 152 167 176 180 184 188 188 189 189 188 187 185
258 246 238 236 236 236 237 234 229 229 227 227 231 230 221 197 188 168 160 142 122 134 124 107 110 112 126 154 169 174 176 177 177 177 174 169 165 161
264 258 248 249 247 243 241 238 228 225 225 223 223 223 224 214 189 171 157 160 166 158 136 111 100 100 81 100 149 163 164 163 162 160 157 152 147 142
259 259 259 252 239 233 237 243 243 237 225 220 225 222 220 214 198 184 178 167 155 154 137 116 98 92 55 63 121 145 150 148 145 143 140 137 133 129
255 252 253 254 245 229 230 235 239 242 235 230 230 228 225 219 206 198 175 145 120 143 137 123 113 95 62 52 76 119 131 133 132 131 128 125 121 118
257 253 249 250 245 231 230 235 237 241 242 235 229 229 225 218 199 181 171 164 159 154 136 124 127 108 76 47 51 82 106 119 124 125 123 120 116 109
262 256 249 246 243 233 231 231 234 234 235 234 228 229 225 219 203 195 184 177 161 153 161 133 137 140 121 74 47 62 83 91 104 114 122 123 123 117
265 261 253 241 238 236 229 229 228 223 226 228 225 220 214 211 205 200 190 182 172 156 162 146 144 147 132 127 93 57 90 114 104 101 105 109 115 125
263 262 258 247 241 237 231 227 221 216 222 221 219 215 207 203 199 195 194 191 179 159 163 155 146 154 142 138 138 116 84 104 120 124 123 112 97 88
262 262 259 252 246 240 233 222 215 215 214 215 215 212 204 197 188 189 188 175 148 150 159 159 149 152 152 146 144 144 137 134 133 136 139 141 139 139
279 274 266 255 243 236 228 220 213 211 210 213 212 207 195 190 189 183 180 168 156 148 148 149 156 155 148 147 149 152 152 151 154 147 138 135 139 149
292 276 264 253 237 227 220 212 204 204 208 209 204 197 193 190 187 185 177 166 168 162 149 130 113 103 113 142 148 153 147 143 154 152 148 144 155 165
279 264 268 265 252 236 220 209 203 203 202 200 199 194 190 187 185 184 180 178 173 165 157 147 139 121 99 47 106 152 149 146 152 154 148 149 160 170
257 259 260 261 259 240 222 211 200 198 194 195 195 191 187 185 183 184 184 182 177 168 161 159 163 157 158 157 155 164 155 150 151 158 163 155 162 165
243 253 255 251 250 249 230 213 200 186 188 191 189 187 185 183 182 183 183 180 174 163 161 168 177 176 173 159 148 161 165 157 156 160 158 136 112 119
255 253 252 250 245 242 232 210 201 198 195 193 188 185 184 181 182 181 178 171 167 165 171 176 167 134 108 111 115 129 160 167 155 155 154 147 145 154
256 254 251 248 243 228 215 210 205 199 196 195 189 182 183 183 181 175 172 172 170 163 159 152 147 142 139 149 147 143 147 153 150 148 155 149 162 174
251 251 250 245 235 220 207 203 200 199 197 188 184 183 181 181 177 173 171 168 163 157 151 150 154 152 142 141 141 142 149 153 154 158 162 110 130 147